Weather History for KCNK - December, 2012

Change the Weather History Date:

Saturday, December 8, 2012

  Actual Average Record
Temperature  
Mean Temperature 34 °F 31 °F  
Max Temperature 45 °F 41 °F 67 °F (1918)
Min Temperature 22 °F 22 °F -6 °F (1927)
Degree Days  
Heating Degree Days 31 34  
Month to date heating degree days 167 260  
Since 1 July heating degree days 1197 1352  
Cooling Degree Days 0 0  
Month to date cooling degree days 0 0  
Year to date cooling degree days 1643 1349  
Moisture  
Dew Point 28 °F    
Average Humidity 79    
Maximum Humidity 100    
Minimum Humidity 58    
Precipitation  
Precipitation 0.00 in 0.04 in 0.62 in (2009)
Month to date precipitation T 0.27  
Year to date precipitation 23.08 27.31  
Snow  
Snow 0.00 in 0.20 in 12.00 in (2009)
Month to date snowfall 0.0 1.0  
Year to date snowfall 5.8 17.4  
Since 1 July snowfall 0.0 3.7  
Snow Depth 0.00 in    
Sea Level Pressure  
Sea Level Pressure 29.93 in    
Wind  
Wind Speed 6 mph (East)    
Max Wind Speed 15 mph    
Max Gust Speed 17 mph    
Visibility 6 miles    
Events      
T = Trace of Precipitation, MM = Missing Value Source: NWS Daily Summary

Daily Weather History Graph

Daily Weather History Graph

Search for Another Location

Airport or City:

Trip Planner

Search our weather history database for the weather conditions in past years. The results will help you decide how hot, cold, wet, or windy it might be!

Date:

Astronomy

Dec. 08, 2012 Rise Set
Actual Time 7:38 AM CST 5:06 PM CST
Civil Twilight 7:08 AM CST 5:36 PM CST
Nautical Twilight 6:35 AM CST 6:10 PM CST
Astronomical Twilight 6:02 AM CST 6:42 PM CST
Moon 2:06 AM CST (12/8) 1:36 PM CST (12/8)
Length of Visible Light 10h 27m
Length of Day
9h 27m
Waning Crescent, 28% of the Moon is Illuminated
Dec 8
Waning Crescent
Dec 13
New
Dec 19
First Quarter
Dec 28
Full
Jan 4
Last Quarter

Hourly Weather History & Observations

Time (CST) Temp. Windchill Dew Point Humidity Pressure Visibility Wind Dir Wind Speed Gust Speed Precip Events Conditions
12:55 AM 30.9 °F 23.5 °F 26.1 °F 82% 30.00 in 10.0 mi West 8.1 mph - N/A   Scattered Clouds
1:55 AM 28.9 °F 21.1 °F 25.0 °F 85% 29.99 in 10.0 mi WNW 8.1 mph - N/A   Mostly Cloudy
2:55 AM 30.9 °F 23.5 °F 26.1 °F 82% 29.99 in 10.0 mi NNW 8.1 mph - N/A   Overcast
3:55 AM 28.9 °F 19.2 °F 25.0 °F 85% 30.00 in 10.0 mi NNW 11.5 mph - N/A   Overcast
4:55 AM 25.0 °F 19.3 °F 21.9 °F 88% 30.00 in 8.0 mi North 4.6 mph - N/A   Clear
5:55 AM 26.1 °F 21.9 °F 23.0 °F 88% 30.00 in 6.0 mi NNE 3.5 mph - N/A   Overcast
6:06 AM 26.6 °F 21.2 °F 24.8 °F 93% 29.96 in 6.0 mi NNE 4.6 mph - N/A   Overcast
6:47 AM 24.8 °F - 23.0 °F 93% 29.97 in 5.0 mi Calm Calm - N/A   Scattered Clouds
6:55 AM 25.0 °F - 21.9 °F 88% 30.01 in 5.0 mi Calm Calm - N/A   Partly Cloudy
7:51 AM 23.0 °F - 21.2 °F 93% 29.96 in 1.8 mi Calm Calm - N/A   Clear
7:53 AM 23.0 °F - 21.2 °F 93% 29.96 in 1.2 mi Calm Calm - N/A   Clear
7:55 AM 21.9 °F - 21.0 °F 96% 30.01 in 1.0 mi Calm Calm - N/A   Clear
8:02 AM 23.0 °F - 21.2 °F 93% 29.97 in 0.8 mi Calm Calm - N/A   Clear
8:07 AM 21.2 °F - 21.2 °F 100% 29.97 in 1.5 mi Calm Calm - N/A   Clear
8:22 AM 23.0 °F - 21.2 °F 93% 29.97 in 1.0 mi Calm Calm - N/A   Clear
8:37 AM 24.8 °F - 23.0 °F 93% 29.97 in 1.8 mi Calm Calm - N/A   Clear
8:44 AM 26.6 °F - 24.8 °F 93% 29.97 in 2.0 mi Calm Calm - N/A   Clear
8:53 AM 26.6 °F - 24.8 °F 93% 29.97 in 2.5 mi Calm Calm - N/A   Scattered Clouds
8:55 AM 27.0 °F - 25.0 °F 92% 30.01 in 2.5 mi Calm Calm - N/A   Mostly Cloudy
9:04 AM 28.4 °F 23.3 °F 26.6 °F 93% 29.98 in 3.0 mi North 4.6 mph - N/A   Mostly Cloudy
9:33 AM 28.4 °F 22.2 °F 26.6 °F 93% 29.97 in 4.0 mi East 5.8 mph - N/A   Scattered Clouds
9:55 AM 30.0 °F 23.2 °F 27.0 °F 88% 30.01 in 5.0 mi ENE 6.9 mph - N/A   Partly Cloudy
10:55 AM 33.1 °F 26.1 °F 28.9 °F 85% 29.99 in 6.0 mi East 8.1 mph - N/A   Clear
11:55 AM 37.9 °F 35.5 °F 28.9 °F 70% 29.96 in 9.0 mi East 3.5 mph - N/A   Partly Cloudy
12:55 PM 42.1 °F 38.4 °F 30.0 °F 62% 29.92 in 10.0 mi Variable 5.8 mph - N/A   Mostly Cloudy
1:55 PM 45.0 °F 39.7 °F 30.0 °F 56% 29.88 in 10.0 mi SE 10.4 mph - N/A   Overcast
2:55 PM 44.1 °F 39.0 °F 30.9 °F 60% 29.87 in 10.0 mi SSE 9.2 mph - N/A   Overcast
3:55 PM 45.0 °F 38.2 °F 30.0 °F 56% 29.83 in 10.0 mi SE 15.0 mph - N/A   Overcast
4:55 PM 43.0 °F 38.2 °F 32.0 °F 65% 29.86 in 10.0 mi East 8.1 mph - N/A   Overcast
5:55 PM 39.0 °F 34.0 °F 30.9 °F 73% 29.84 in 10.0 mi ESE 6.9 mph - N/A   Partly Cloudy
6:55 PM 37.9 °F 32.1 °F 32.0 °F 79% 29.86 in 8.0 mi ESE 8.1 mph - N/A   Mostly Cloudy
7:55 PM 39.0 °F 33.4 °F 32.0 °F 76% 29.86 in 9.0 mi ESE 8.1 mph - N/A   Overcast
8:55 PM 39.0 °F - 33.1 °F 79% 29.87 in 9.0 mi Calm Calm - N/A   Overcast
9:17 PM 39.2 °F - 33.8 °F 81% 29.85 in 8.0 mi Calm Calm - N/A   Overcast
9:55 PM 39.0 °F 34.0 °F 34.0 °F 82% 29.87 in 7.0 mi SSE 6.9 mph - N/A   Overcast
10:11 PM 39.2 °F - 35.6 °F 87% 29.84 in 7.0 mi Calm Calm - N/A   Overcast
10:53 PM 39.2 °F 37.0 °F 35.6 °F 87% 29.85 in 6.0 mi SE 3.5 mph - N/A   Overcast
10:55 PM 39.9 °F 37.8 °F 36.0 °F 86% 29.87 in 6.0 mi Variable 3.5 mph - N/A   Overcast
11:55 PM 39.9 °F 37.8 °F 36.0 °F 86% 29.87 in 5.0 mi SSE 3.5 mph - N/A   Overcast